| time (UTC) | temp F | wind direction | speed knots | gust knots | rain 1hr in | rain 24hr in | rain mn in | humidity % | barometer mb |
| 20260506174845 | 52 | 130 | 6.1 | 0.0 | 0.00 | 0.00 | 0.00 | 88 | 1016.0 |
| 20260506173344 | 52 | 130 | 6.1 | 0.0 | 0.00 | 0.00 | 0.00 | 88 | 1016.0 |
| 20260506171845 | 57 | 150 | 7.0 | 0.0 | 0.00 | 0.00 | 0.00 | 77 | 1016.0 |
| 20260506170344 | 57 | 150 | 7.0 | 0.0 | 0.00 | 0.00 | 0.00 | 77 | 1016.0 |
| 20260506164844 | 61 | 140 | 6.1 | 0.0 | 0.00 | 0.00 | 0.00 | 68 | 1016.0 |
| 20260506163344 | 61 | 140 | 6.1 | 0.0 | 0.00 | 0.00 | 0.00 | 68 | 1016.0 |
| 20260506161845 | 63 | 140 | 7.8 | 0.0 | 0.00 | 0.00 | 0.00 | 59 | 1016.0 |
| 20260506160344 | 63 | 140 | 7.8 | 0.0 | 0.00 | 0.00 | 0.00 | 59 | 1016.0 |
| 20260506154845 | 64 | 140 | 8.7 | 0.0 | 0.00 | 0.00 | 0.00 | 52 | 1016.0 |
| 20260506153344 | 64 | 140 | 8.7 | 0.0 | 0.00 | 0.00 | 0.00 | 52 | 1016.0 |
| 20260506151844 | 66 | 150 | 9.6 | 0.0 | 0.00 | 0.00 | 0.00 | 49 | 1016.0 |
| 20260506150350 | 66 | 150 | 9.6 | 0.0 | 0.00 | 0.00 | 0.00 | 49 | 1016.0 |
| 20260506144844 | 66 | 160 | 12.2 | 0.0 | 0.00 | 0.00 | 0.00 | 49 | 1016.0 |
| 20260506143356 | 66 | 160 | 12.2 | 0.0 | 0.00 | 0.00 | 0.00 | 49 | 1016.0 |
| 20260506141844 | 66 | 150 | 11.3 | 0.0 | 0.00 | 0.00 | 0.00 | 52 | 1016.0 |
| 20260506140505 | 66 | 150 | 11.3 | 0.0 | 0.00 | 0.00 | 0.00 | 52 | 1016.0 |
| 20260506134909 | 68 | 150 | 12.2 | 0.0 | 0.00 | 0.00 | 0.00 | 46 | 1016.0 |
| 20260506133344 | 68 | 150 | 12.2 | 0.0 | 0.00 | 0.00 | 0.00 | 46 | 1016.0 |
| 20260506131844 | 68 | 150 | 11.3 | 0.0 | 0.00 | 0.00 | 0.00 | 43 | 1016.0 |
| 20260506130353 | 68 | 150 | 11.3 | 0.0 | 0.00 | 0.00 | 0.00 | 43 | 1016.0 |
| 20260506124845 | 68 | 140 | 11.3 | 0.0 | 0.00 | 0.00 | 0.00 | 40 | 1016.0 |
| 20260506123344 | 68 | 140 | 11.3 | 0.0 | 0.00 | 0.00 | 0.00 | 40 | 1016.0 |
| 20260506121845 | 68 | 150 | 11.3 | 0.0 | 0.00 | 0.00 | 0.00 | 43 | 1016.0 |
| 20260506120344 | 68 | 150 | 11.3 | 0.0 | 0.00 | 0.00 | 0.00 | 43 | 1016.0 |
| 20260506114844 | 68 | 140 | 11.3 | 0.0 | 0.00 | 0.00 | 0.00 | 46 | 1016.0 |
| 20260506113345 | 68 | 140 | 11.3 | 0.0 | 0.00 | 0.00 | 0.00 | 46 | 1016.0 |
| 20260506111844 | 68 | 160 | 11.3 | 0.0 | 0.00 | 0.00 | 0.00 | 46 | 1017.0 |
| 20260506110344 | 68 | 160 | 11.3 | 0.0 | 0.00 | 0.00 | 0.00 | 46 | 1017.0 |
| 20260506104844 | 68 | 160 | 11.3 | 0.0 | 0.00 | 0.00 | 0.00 | 46 | 1017.0 |
| 20260506103344 | 68 | 160 | 11.3 | 0.0 | 0.00 | 0.00 | 0.00 | 46 | 1017.0 |
| 20260506101845 | 68 | 150 | 9.6 | 0.0 | 0.00 | 0.00 | 0.00 | 46 | 1016.0 |
| 20260506100344 | 68 | 150 | 9.6 | 0.0 | 0.00 | 0.00 | 0.00 | 46 | 1016.0 |
| 20260506094844 | 68 | 150 | 9.6 | 0.0 | 0.00 | 0.00 | 0.00 | 43 | 1017.0 |
| 20260506093344 | 68 | 150 | 9.6 | 0.0 | 0.00 | 0.00 | 0.00 | 43 | 1017.0 |
| 20260506091844 | 66 | 140 | 12.2 | 0.0 | 0.00 | 0.00 | 0.00 | 46 | 1016.0 |
| 20260506090344 | 66 | 140 | 12.2 | 0.0 | 0.00 | 0.00 | 0.00 | 46 | 1016.0 |
| 20260506084844 | 68 | 140 | 9.6 | 0.0 | 0.00 | 0.00 | 0.00 | 43 | 1016.0 |
| 20260506083344 | 68 | 140 | 9.6 | 0.0 | 0.00 | 0.00 | 0.00 | 43 | 1016.0 |
| 20260506081841 | 66 | 130 | 8.7 | 0.0 | 0.00 | 0.00 | 0.00 | 52 | 1016.0 |
| 20260506080344 | 66 | 130 | 8.7 | 0.0 | 0.00 | 0.00 | 0.00 | 52 | 1016.0 |
| 20260506073344 | 66 | 160 | 6.1 | 0.0 | 0.00 | 0.00 | 0.00 | 46 | 1016.0 |
| 20260506071844 | 64 | 150 | 5.2 | 0.0 | 0.00 | 0.00 | 0.00 | 43 | 1016.0 |
| 20260506070344 | 64 | 150 | 5.2 | 0.0 | 0.00 | 0.00 | 0.00 | 43 | 1016.0 |
| 20260506061845 | 55 | 1.7 | 0.0 | 0.00 | 0.00 | 0.00 | 67 | 1016.0 | |
| 20260506060346 | 55 | 1.7 | 0.0 | 0.00 | 0.00 | 0.00 | 67 | 1016.0 | |
| 20260506050358 | 48 | 50 | 1.7 | 0.0 | 0.00 | 0.00 | 0.00 | 76 | 1016.0 |
| 20260506044900 | 48 | 0.9 | 0.0 | 0.00 | 0.00 | 0.00 | 71 | 1015.0 | |
| 20260506043348 | 48 | 0.9 | 0.0 | 0.00 | 0.00 | 0.00 | 71 | 1015.0 | |
| 20260506041845 | 43 | 10 | 2.6 | 0.0 | 0.00 | 0.00 | 0.00 | 87 | 1015.0 |
| 20260506040344 | 43 | 10 | 2.6 | 0.0 | 0.00 | 0.00 | 0.00 | 87 | 1015.0 |
| 20260506034845 | 41 | 0.9 | 0.0 | 0.00 | 0.00 | 0.00 | 81 | 1015.0 | |
| 20260506033344 | 41 | 0.9 | 0.0 | 0.00 | 0.00 | 0.00 | 81 | 1015.0 | |
| 20260506031844 | 41 | 240 | 4.3 | 0.0 | 0.00 | 0.00 | 0.00 | 81 | 1015.0 |
| 20260506030344 | 41 | 240 | 4.3 | 0.0 | 0.00 | 0.00 | 0.00 | 81 | 1015.0 |
| 20260506024844 | 43 | 1.7 | 0.0 | 0.00 | 0.00 | 0.00 | 76 | 1015.0 | |
| 20260506023344 | 43 | 1.7 | 0.0 | 0.00 | 0.00 | 0.00 | 76 | 1015.0 | |
| 20260506020344 | 45 | 240 | 2.6 | 0.0 | 0.00 | 0.00 | 0.00 | 71 | 1015.0 |
| 20260506014844 | 41 | 0 | 0.0 | 0.0 | 0.00 | 0.00 | 0.00 | 81 | 1015.0 |
| 20260506013344 | 41 | 0 | 0.0 | 0.0 | 0.00 | 0.00 | 0.00 | 81 | 1015.0 |
| 20260506011845 | 46 | 0.9 | 0.0 | 0.00 | 0.00 | 0.00 | 76 | 1015.0 | |
| 20260506010344 | 46 | 0.9 | 0.0 | 0.00 | 0.00 | 0.00 | 76 | 1015.0 | |
| 20260506003506 | 46 | 0 | 0.0 | 0.0 | 0.00 | 0.00 | 0.00 | 76 | 1015.0 |
| 20260506001845 | 46 | 10 | 0.9 | 0.0 | 0.00 | 0.00 | 0.00 | 82 | 1015.0 |
| 20260506000346 | 46 | 10 | 0.9 | 0.0 | 0.00 | 0.00 | 0.00 | 82 | 1015.0 |
| 20260505234844 | 45 | 60 | 2.6 | 0.0 | 0.00 | 0.00 | 0.00 | 87 | 1015.0 |
| 20260505233344 | 45 | 60 | 2.6 | 0.0 | 0.00 | 0.00 | 0.00 | 87 | 1015.0 |
| 20260505231844 | 45 | 40 | 2.6 | 0.0 | 0.00 | 0.00 | 0.00 | 87 | 1015.0 |
| 20260505230345 | 45 | 40 | 2.6 | 0.0 | 0.00 | 0.00 | 0.00 | 87 | 1015.0 |
| 20260505224845 | 45 | 20 | 4.3 | 0.0 | 0.00 | 0.00 | 0.00 | 87 | 1015.0 |
| 20260505223344 | 45 | 20 | 4.3 | 0.0 | 0.00 | 0.00 | 0.00 | 87 | 1015.0 |
| 20260505221842 | 46 | 1.7 | 0.0 | 0.00 | 0.00 | 0.00 | 82 | 1016.0 | |
| 20260505220344 | 46 | 1.7 | 0.0 | 0.00 | 0.00 | 0.00 | 82 | 1016.0 | |
| 20260505214845 | 46 | 50 | 1.7 | 0.0 | 0.00 | 0.00 | 0.00 | 87 | 1016.0 |
| 20260505213344 | 46 | 50 | 1.7 | 0.0 | 0.00 | 0.00 | 0.00 | 87 | 1016.0 |
| 20260505211844 | 48 | 0 | 0.0 | 0.0 | 0.00 | 0.00 | 0.00 | 87 | 1016.0 |
| 20260505210344 | 48 | 0 | 0.0 | 0.0 | 0.00 | 0.00 | 0.00 | 87 | 1016.0 |
| 20260505204846 | 46 | 0.9 | 0.0 | 0.00 | 0.00 | 0.00 | 93 | 1016.0 | |
| 20260505203344 | 46 | 0.9 | 0.0 | 0.00 | 0.00 | 0.00 | 93 | 1016.0 | |
| 20260505201915 | 48 | 0.9 | 0.0 | 0.00 | 0.00 | 0.00 | 82 | 1016.0 | |
| 20260505200345 | 48 | 0.9 | 0.0 | 0.00 | 0.00 | 0.00 | 82 | 1016.0 | |
| 20260505194844 | 48 | 180 | 2.6 | 0.0 | 0.00 | 0.00 | 0.00 | 87 | 1016.0 |
| 20260505193344 | 48 | 180 | 2.6 | 0.0 | 0.00 | 0.00 | 0.00 | 87 | 1016.0 |
| 20260505191844 | 48 | 170 | 2.6 | 0.0 | 0.00 | 0.00 | 0.00 | 82 | 1016.0 |
| 20260505190344 | 48 | 170 | 2.6 | 0.0 | 0.00 | 0.00 | 0.00 | 82 | 1016.0 |
| 20260505184845 | 48 | 170 | 2.6 | 0.0 | 0.00 | 0.00 | 0.00 | 82 | 1016.0 |
| 20260505183345 | 48 | 170 | 2.6 | 0.0 | 0.00 | 0.00 | 0.00 | 82 | 1016.0 |
| 20260505181845 | 50 | 140 | 4.3 | 0.0 | 0.00 | 0.00 | 0.00 | 82 | 1015.0 |
| 20260505180345 | 50 | 140 | 4.3 | 0.0 | 0.00 | 0.00 | 0.00 | 82 | 1015.0 |